Bookmark and Share
Track history (hours):
 

Grande Europa

Last reported at 2014-Apr-17 21:31 UTC. Time now 2014-Apr-17 21:48 UTC.
Position N 38°31' W 008°53'.

Length 183 m; draft 8.3 m.

Type: Cargo ship. MMSI: 247206000.

NotesDate/timePositionNaut miles runAvg speedWind from/ knotsBaromVisibWave heightAir tempDewpointWater temp
2014-Apr-17 21:31N 38°31' W 008°53'0 0.0
2014-Apr-17 20:28N 38°31' W 008°53'0 0.0
2014-Apr-17 19:31N 38°31' W 008°53'0 0.0
2014-Apr-17 18:31N 38°31' W 008°53'0 0.0
2014-Apr-17 17:31N 38°31' W 008°53'0 0.0
2014-Apr-17 16:31N 38°31' W 008°53'0 0.0
2014-Apr-17 15:31N 38°31' W 008°53'3 2.8
2014-Apr-17 14:33N 38°29' W 008°56'7 6.6
2014-Apr-17 13:33N 38°25' W 009°01'6 5.7
2014-Apr-17 12:33N 38°19' W 009°02'1312.5
2014-Apr-17 11:33N 38°07' W 009°05'1616.5
2014-Apr-17 10:33N 37°51' W 009°09'1716.9
2014-Apr-17 09:33N 37°34' W 009°13'1717.0
2014-Apr-17 08:33N 37°17' W 009°17'1916.9
2014-Apr-17 07:27N 36°59' W 009°21'1716.3
2014-Apr-17 06:25N 36°45' W 009°09'1517.4
2014-Apr-17 05:33N 36°40' W 008°52'1817.6
2014-Apr-17 04:33N 36°34' W 008°31'1817.6
2014-Apr-17 03:33N 36°29' W 008°10'11117.2
2014-Apr-16 21:06N 35°57' W 005°58'1516.5
2014-Apr-16 20:10N 35°57' W 005°39'914.3
2014-Apr-16 19:33N 35°59' W 005°29'1515.4
2014-Apr-16 18:33N 36°03' W 005°10'24317.3
2014-Apr-16 04:32N 37°37' W 000°31'2017.7
2014-Apr-16 03:22N 37°54' W 000°16'1517.2
2014-Apr-16 02:32N 38°06' W 000°07'3014.8
2014-Apr-16 00:29N 38°32' E 000°14'1717.8
2014-Apr-15 23:32N 38°45' E 000°27'2017.7
2014-Apr-15 22:24N 38°56' E 000°48'3217.2
2014-Apr-15 20:33N 39°14' E 001°22'1818.0
2014-Apr-15 19:34N 39°25' E 001°40'1716.5
2014-Apr-15 18:33N 39°36' E 001°56'1818.0
2014-Apr-15 17:33N 39°49' E 002°13'1717.1
2014-Apr-15 16:33N 40°01' E 002°29'1716.9
2014-Apr-15 15:33N 40°12' E 002°45'1717.3
2014-Apr-15 14:33N 40°24' E 003°02'17 8.6
2014-Apr-15 12:34N 40°35' E 003°19'1818.3
2014-Apr-15 11:33N 40°48' E 003°36'1817.2
2014-Apr-15 10:30N 41°00' E 003°54'1617.0
2014-Apr-15 09:34N 41°11' E 004°09'1717.0
2014-Apr-15 08:34N 41°23' E 004°26'3316.3
2014-Apr-15 06:33N 41°45' E 004°58'4615.4
2014-Apr-15 03:34N 42°15' E 005°45'1616.0
2014-Apr-15 02:34N 42°26' E 006°01'1615.8
2014-Apr-15 01:34N 42°36' E 006°18'1716.4
2014-Apr-15 00:33N 42°47' E 006°34'1716.9
2014-Apr-14 23:34N 42°58' E 006°52'1716.6
2014-Apr-14 22:34N 43°09' E 007°09'6716.6
2014-Apr-14 18:30N 43°53' E 008°19'1516.5
2014-Apr-14 17:34N 44°07' E 008°28'1211.7
2014-Apr-14 16:31N 44°19' E 008°30'0 0.0
2014-Apr-14 14:31N 44°19' E 008°30'0 0.0
2014-Apr-14 13:31N 44°19' E 008°30'0 0.1
2014-Apr-14 09:33N 44°19' E 008°30'7 7.1
2014-Apr-14 08:33N 44°13' E 008°35'6 5.7
2014-Apr-14 07:33N 44°08' E 008°39'1 1.1
2014-Apr-14 06:33N 44°07' E 008°41'1010.4
2014-Apr-14 05:33N 43°59' E 008°48'28216.6
2014-Apr-13 12:33N 40°40' E 013°19'1616.2
2014-Apr-13 11:33N 40°36' E 013°39'1616.4
2014-Apr-13 10:33N 40°31' E 014°00'1616.1
2014-Apr-13 09:33N 40°31' E 014°21'18 0.9
2014-Apr-12 12:33N 40°33' E 014°45'1817.1
2014-Apr-12 11:32N 40°15' E 014°45'  
2014-Apr-08 17:18N 33°54' E 032°24'1716.5
2014-Apr-08 16:15N 34°07' E 032°37'1216.7
2014-Apr-08 15:33N 34°16' E 032°46'1616.3
2014-Apr-08 14:33N 34°28' E 032°60'1110.8
2014-Apr-08 13:33N 34°39' E 033°01'0 0.4
2014-Apr-08 12:33N 34°39' E 033°01'0 0.0
2014-Apr-08 11:33N 34°39' E 033°01'0 0.0
2014-Apr-08 10:33N 34°39' E 033°01'0 0.0
2014-Apr-08 09:30N 34°39' E 033°01'0 0.0
2014-Apr-08 08:33N 34°39' E 033°01'4 3.8
2014-Apr-08 07:33N 34°38' E 033°06'10 9.9
2014-Apr-08 06:33N 34°29' E 033°10'1815.6
2014-Apr-08 05:23N 34°13' E 033°19'7816.0
2014-Apr-08 00:33N 33°03' E 033°59'1815.9
2014-Apr-07 23:27N 32°59' E 034°19'1416.0
2014-Apr-07 22:33N 32°57' E 034°36'1616.2
2014-Apr-07 21:32N 32°54' E 034°55'  

Dump ship's entire track history

sailing weather and tide predictions

Grande Europa — ICGE — position and weather